Regional Weather Roundup
Issued by NWS

Current Version | Previous Version | Text Only | Print | Product List | Glossary On
Versions: 1 2 3 4 5 6 7 8 9 10 11 12 13 14 15 16 17 18 19 20 21 22 23 24 25 26 27
000
ASUS45 KCYS 040410
RWRWY

WYOMING REGIONAL WEATHER ROUNDUP
NATIONAL WEATHER SERVICE CHEYENNE WY
900 PM MST SAT DEC 03 2016

NOTE:  "FAIR" INDICATES FEW OR NO CLOUDS BELOW 12,000 FEET
WITH NO SIGNIFICANT WEATHER AND/OR OBSTRUCTIONS TO VISIBILITY.

WYZ001-040500-
YELLOWSTONE NATIONAL PARK

CITY           SKY/WX    TMP DP  RH WIND       PRES   REMARKS
LK YELLOWSTONE   N/A     17  15  92 VRB6G16   30.03F WCI   9
W YELLOWSTONE  NOT AVBL

$$
WYZ002>013-054>058-071-098>099-040500-
NORTHERN WYOMING

CITY           SKY/WX    TMP DP  RH WIND       PRES   REMARKS
JACKSON        LGT SNOW  25  21  86 W6        30.09F WCI  18
CODY           FAIR      32  14  47 W12G24    29.98F WCI  23
GREYBULL       CLOUDY    28  17  63 SE5       29.99S WCI  23
WORLAND        FAIR      20  15  81 CALM      29.99S
SHERIDAN       CLOUDY    36  16  44 W13       29.94R WCI  27
BUFFALO        FAIR      37  10  32 NW15G25   29.92F WCI  28
GILLETTE       MOCLDY    29  18  63 W7        29.92F WCI  22
HULETT         CLOUDY    32  27  80 SW8       29.92S WCI  25
NEWCASTLE      FAIR      28  23  80 N7        29.94F WCI  21

$$
WYZ014>020-022>026-101>103-040500-
CENTRAL WYOMING

CITY           SKY/WX    TMP DP  RH WIND       PRES   REMARKS
BIG PINEY      FAIR      15  10  80 S5        30.11S WCI   8
PINEDALE       FAIR      12  10  92 W9        30.11S WCI   0
DUBOIS         FAIR      21   9  58 NW21      29.98F WCI   6
LANDER         FAIR      22   9  57 CALM      30.01S
RIVERTON       FAIR      28   9  44 NW16      30.00S WCI  16
CASPER         FAIR      21  13  71 W12       29.99S WCI   9
DOUGLAS        FAIR      24  14  65 N7        29.98F WCI  16

$$
WYZ021-027>030-104>119-040500-
SOUTHERN WYOMING

CITY           SKY/WX    TMP DP  RH WIND       PRES   REMARKS
EVANSTON       CLOUDY    23  13  65 SW9       30.19S WCI  13
FORT BRIDGER   MOCLDY    25  18  75 W26G33    30.18R WCI   9
ROCK SPRINGS   FAIR      20  15  81 W17       30.13S WCI   5
DIXON          CLOUDY    26  17  69 W13       30.18R WCI  15
RAWLINS        FAIR      20  13  74 SW17      30.07R WCI   5
SARATOGA       FAIR      21  16  79 SW17      30.06F WCI   7
LARAMIE        FAIR      19   8  62 SW13      29.99F WCI   6
CHEYENNE       MOCLDY    27   9  46 W15       30.01S WCI  15
TORRINGTON     CLOUDY    33  15  47 W14       29.99F WCI  23
PINE BLUFFS    MOCLDY    27  12  54 W8        30.02S WCI  18

$$




USA.gov is the U.S. government's official web portal to all federal, state and local government web resources and services.